Weather History for KHJH - January, 2014

Change the Weather History Date:

Saturday, January 18, 2014

  Actual Average Record
Temperature  
Mean Temperature 34 °F -  
Max Temperature 45 °F 34 °F 66 °F (1986)
Min Temperature 21 °F 14 °F -13 °F (1978)
Degree Days  
Heating Degree Days 32    
Moisture  
Dew Point 22 °F    
Average Humidity 55    
Maximum Humidity 86    
Minimum Humidity 42    
Precipitation  
Precipitation 0.00 in - - ()
Sea Level Pressure  
Sea Level Pressure 29.93 in    
Wind  
Wind Speed 15 mph (WNW)    
Max Wind Speed 37 mph    
Max Gust Speed 53 mph    
Visibility 10 miles    
Events      
Averages and records for this station are not official NWS values.
T = Trace of Precipitation, MM = Missing Value Source: NWS Daily Summary

Daily Weather History Graph

Daily Weather History Graph

Search for Another Location

Airport or City:

Trip Planner

Search our weather history database for the weather conditions in past years. The results will help you decide how hot, cold, wet, or windy it might be!

Date:

Astronomy

Jan. 18, 2014 Rise Set
Actual Time 7:49 AM CST 5:32 PM CST
Civil Twilight 7:19 AM CST 6:02 PM CST
Nautical Twilight 6:46 AM CST 6:35 PM CST
Astronomical Twilight 6:14 AM CST 7:08 PM CST
Moon 8:16 PM CST (1/18) 8:49 AM CST (1/18)
Length of Visible Light 10h 42m
Length of Day
9h 43m
Waning Gibbous, 94% of the Moon is Illuminated
Jan 18
Waning Gibbous
Jan 23
Last Quarter
Jan 30
New
Feb 6
First Quarter
Feb 14
Full

Hourly Weather History & Observations

Time (CST) Temp. Windchill Dew Point Humidity Pressure Visibility Wind Dir Wind Speed Gust Speed Precip Events Conditions
12:15 AM 34.3 °F 25.5 °F 15.3 °F 46% 29.83 in 10.0 mi SW 12.7 mph 18.4 mph N/A   Clear
12:35 AM 34.5 °F 25.7 °F 15.4 °F 46% 29.82 in 10.0 mi SW 12.7 mph 17.3 mph N/A   Scattered Clouds
12:55 AM 34.0 °F 25.5 °F 15.8 °F 47% 29.81 in 10.0 mi SW 11.5 mph - N/A   Clear
1:15 AM 33.3 °F 23.7 °F 16.2 °F 50% 29.81 in 10.0 mi SW 13.8 mph 18.4 mph N/A   Scattered Clouds
1:35 AM 33.3 °F 23.2 °F 16.5 °F 50% 29.79 in 10.0 mi SW 15.0 mph 20.7 mph N/A   Mostly Cloudy
1:55 AM 33.8 °F 26.4 °F 17.4 °F 51% 29.79 in 10.0 mi WSW 9.2 mph - N/A   Overcast
2:15 AM 35.1 °F 28.6 °F 18.0 °F 50% 29.78 in 10.0 mi WSW 8.1 mph - N/A   Overcast
2:35 AM 34.5 °F 26.7 °F 18.1 °F 51% 29.78 in 10.0 mi WSW 10.4 mph - N/A   Mostly Cloudy
2:55 AM 33.1 °F 26.9 °F 18.5 °F 55% 29.79 in 10.0 mi West 6.9 mph - N/A   Clear
3:15 AM 33.1 °F 26.1 °F 19.4 °F 57% 29.79 in 10.0 mi West 8.1 mph - N/A   Clear
3:35 AM 33.4 °F 28.1 °F 20.1 °F 58% 29.78 in 10.0 mi West 5.8 mph - N/A   Clear
3:55 AM 33.6 °F 26.8 °F 20.7 °F 59% 29.76 in 10.0 mi WSW 8.1 mph - N/A   Clear
4:15 AM 33.8 °F 27.0 °F 21.0 °F 60% 29.77 in 10.0 mi West 8.1 mph - N/A   Clear
4:35 AM 34.0 °F 28.0 °F 21.0 °F 59% 29.77 in 10.0 mi West 6.9 mph - N/A   Clear
4:55 AM 34.0 °F 27.2 °F 21.2 °F 60% 29.77 in 10.0 mi West 8.1 mph - N/A   Clear
5:15 AM 37.2 °F 27.6 °F 22.1 °F 54% 29.77 in 10.0 mi WNW 17.3 mph 24.2 mph N/A   Clear
5:35 AM 42.8 °F 34.8 °F 21.9 °F 44% 29.77 in 10.0 mi WNW 17.3 mph 25.3 mph N/A   Clear
5:55 AM 42.8 °F 34.8 °F 22.3 °F 44% 29.77 in 10.0 mi NW 17.3 mph 26.5 mph N/A   Clear
6:15 AM 42.6 °F 33.5 °F 22.5 °F 45% 29.77 in 10.0 mi WNW 21.9 mph 27.6 mph N/A   Clear
6:35 AM 42.4 °F 33.3 °F 22.8 °F 46% 29.78 in 10.0 mi NW 21.9 mph 31.1 mph N/A   Clear
6:55 AM 41.0 °F 32.2 °F 23.0 °F 49% 29.79 in 10.0 mi WNW 18.4 mph 26.5 mph N/A   Clear
7:15 AM 41.0 °F 33.1 °F 23.4 °F 50% 29.78 in 10.0 mi WNW 15.0 mph 19.6 mph N/A   Clear
7:35 AM 41.0 °F 33.1 °F 23.7 °F 50% 29.78 in 10.0 mi WNW 15.0 mph 21.9 mph N/A   Clear
7:55 AM 39.2 °F 30.8 °F 23.5 °F 53% 29.79 in 10.0 mi West 15.0 mph 19.6 mph N/A   Clear
8:15 AM 40.8 °F 32.0 °F 24.4 °F 52% 29.81 in 10.0 mi WNW 18.4 mph 29.9 mph N/A   Clear
8:35 AM 41.2 °F 32.1 °F 25.0 °F 53% 29.81 in 10.0 mi WNW 19.6 mph 27.6 mph N/A   Clear
8:55 AM 41.9 °F 34.6 °F 25.5 °F 52% 29.81 in 10.0 mi WNW 13.8 mph 20.7 mph N/A   Scattered Clouds
9:15 AM 44.6 °F 36.1 °F 26.2 °F 49% 29.82 in 10.0 mi NW 21.9 mph 29.9 mph N/A   Scattered Clouds
9:35 AM 45.5 °F 36.5 °F 25.5 °F 46% 29.83 in 10.0 mi NW 26.5 mph 43.7 mph N/A   Mostly Cloudy
9:55 AM 45.3 °F 35.7 °F 24.8 °F 45% 29.84 in 10.0 mi NW 29.9 mph 40.3 mph N/A   Overcast
10:15 AM 44.6 °F 35.3 °F 24.4 °F 45% 29.85 in 10.0 mi NNW 26.5 mph 39.1 mph N/A   Overcast
10:35 AM 44.2 °F 35.0 °F 24.6 °F 46% 29.86 in 10.0 mi NNW 25.3 mph 40.3 mph N/A   Overcast
10:55 AM 44.1 °F 34.6 °F 24.6 °F 46% 29.89 in 10.0 mi NNW 26.5 mph 40.3 mph N/A   Overcast
11:15 AM - - - N/A% 29.90 in - NNW 26.5 mph - N/A   Unknown
11:35 AM 43.7 °F 34.3 °F 23.0 °F 44% 29.90 in 10.0 mi NNW 25.3 mph 44.9 mph N/A   Overcast
11:55 AM 43.3 °F 34.0 °F 23.4 °F 45% 29.90 in 10.0 mi NNW 24.2 mph 40.3 mph N/A   Overcast
12:15 PM 43.7 °F 33.5 °F 22.6 °F 43% 29.90 in 10.0 mi NNW 29.9 mph 49.5 mph N/A   Overcast
12:35 PM 43.9 °F 33.9 °F 22.5 °F 43% 29.90 in 10.0 mi NNW 28.8 mph 52.9 mph N/A   Overcast
12:55 PM 44.1 °F 33.0 °F 22.5 °F 42% 29.91 in 10.0 mi NNW 36.8 mph 49.5 mph N/A   Overcast
1:15 PM 44.2 °F 34.2 °F 23.2 °F 43% 29.92 in 10.0 mi NNW 29.9 mph 40.3 mph N/A   Overcast
1:35 PM 44.1 °F 34.8 °F 24.3 °F 46% 29.92 in 10.0 mi NW 25.3 mph 36.8 mph N/A   Overcast
2:00 PM 44.4 °F 33.8 °F 24.1 °F 45% 29.93 in 10.0 mi NNW 34.5 mph 48.3 mph N/A   Overcast
2:15 PM 43.9 °F 33.1 °F 23.9 °F 45% 29.94 in 10.0 mi NNW 34.5 mph 46.0 mph N/A   Overcast
2:35 PM 43.9 °F 33.4 °F 23.9 °F 45% 29.95 in 10.0 mi NNW 32.2 mph 42.6 mph N/A   Overcast
2:55 PM 43.9 °F 34.1 °F 24.4 °F 46% 29.96 in 10.0 mi NNW 27.6 mph 42.6 mph N/A   Overcast
3:15 PM 43.7 °F 33.5 °F 24.3 °F 46% 29.98 in 10.0 mi NNW 29.9 mph 39.1 mph N/A   Overcast
3:35 PM 44.4 °F 34.5 °F 23.7 °F 44% 30.00 in 10.0 mi NNW 29.9 mph 39.1 mph N/A   Mostly Cloudy
3:55 PM 43.3 °F 33.6 °F 23.0 °F 45% 30.01 in 10.0 mi NNW 26.5 mph 35.7 mph N/A   Scattered Clouds
4:15 PM 43.3 °F 33.4 °F 21.7 °F 42% 30.02 in 10.0 mi NNW 27.6 mph 38.0 mph N/A   Clear
4:35 PM 42.8 °F 32.7 °F 21.2 °F 42% 30.04 in 10.0 mi NNW 27.6 mph 33.4 mph N/A   Clear
4:55 PM 42.1 °F 33.3 °F 21.4 °F 44% 30.05 in 10.0 mi NNW 19.6 mph 32.2 mph N/A   Clear
5:15 PM 41.0 °F 32.2 °F 21.9 °F 47% 30.07 in 10.0 mi NNW 18.4 mph 27.6 mph N/A   Clear
5:35 PM 39.6 °F 31.0 °F 22.5 °F 50% 30.08 in 10.0 mi NNW 16.1 mph 25.3 mph N/A   Clear
5:55 PM 38.5 °F 30.7 °F 22.5 °F 53% 30.09 in 10.0 mi NNW 12.7 mph 18.4 mph N/A   Clear
6:15 PM 37.4 °F 29.3 °F 22.1 °F 54% 30.10 in 10.0 mi NNW 12.7 mph 17.3 mph N/A   Clear
6:35 PM 36.5 °F 29.2 °F 22.1 °F 56% 30.10 in 10.0 mi NNW 10.4 mph - N/A   Clear
6:55 PM 35.2 °F 28.1 °F 22.1 °F 59% 30.11 in 10.0 mi NNW 9.2 mph - N/A   Clear
7:15 PM 33.4 °F 27.3 °F 21.9 °F 63% 30.12 in 10.0 mi NW 6.9 mph - N/A   Clear
7:35 PM 32.0 °F 26.4 °F 21.7 °F 66% 30.12 in 10.0 mi NW 5.8 mph - N/A   Clear
7:55 PM 31.1 °F 25.4 °F 21.9 °F 69% 30.12 in 10.0 mi NW 5.8 mph - N/A   Clear
8:15 PM 31.6 °F 26.0 °F 22.3 °F 68% 30.12 in 10.0 mi NW 5.8 mph - N/A   Clear
8:35 PM 31.5 °F - 22.6 °F 70% 30.11 in 10.0 mi Calm Calm - N/A   Clear
8:55 PM 30.0 °F 26.5 °F 21.9 °F 72% 30.11 in 10.0 mi West 3.5 mph - N/A   Clear
9:15 PM 28.9 °F 21.9 °F 22.1 °F 76% 30.10 in 10.0 mi WSW 6.9 mph - N/A   Clear
9:35 PM 29.3 °F 20.2 °F 22.3 °F 75% 30.10 in 10.0 mi WSW 10.4 mph - N/A   Clear
9:55 PM 28.9 °F 22.8 °F 22.1 °F 76% 30.10 in 10.0 mi West 5.8 mph - N/A   Clear
10:15 PM 25.0 °F 19.3 °F 20.1 °F 82% 30.11 in 10.0 mi West 4.6 mph - N/A   Clear
10:35 PM 25.7 °F - 20.5 °F 81% 30.10 in 10.0 mi Calm Calm - N/A   Clear
10:55 PM 24.1 °F - 19.6 °F 83% 30.10 in 10.0 mi Calm Calm - N/A   Clear
11:15 PM 22.5 °F - 18.1 °F 83% 30.09 in 10.0 mi Calm Calm - N/A   Clear
11:35 PM 22.5 °F - 18.7 °F 85% 30.09 in 10.0 mi Calm Calm - N/A   Clear
11:55 PM 21.2 °F 16.4 °F 17.6 °F 86% 30.08 in 10.0 mi West 3.5 mph - N/A   Clear